Theta_e
315 314 316 317 313 314 318 315 316 318 318 316 314 334 337 336 341 335 335 333 334 333 331 327 325 324 324 322 325 334 338 339 338 330 331 333 334 334 336 338 338 331 327 331 331 331 330 330 333
314 315 316 311 312 314 312 316 318 317 316 314 315 334 336 337 337 335 334 335 334 333 331 329 325 325 325 323 323 327 333 334 332 331 332 333 334 334 333 330 326 323 324 328 329 329 330 331 332
313 317 309 315 313 313 312 314 315 314 313 315 317 329 336 336 336 334 335 335 336 334 331 330 327 325 325 324 323 325 327 329 330 330 332 334 334 333 330 327 323 324 325 327 328 329 330 331 331
313 311 309 312 314 313 313 315 313 313 315 315 317 319 338 336 336 335 335 333 337 335 332 330 329 326 326 325 323 324 326 328 329 330 332 333 333 333 331 326 322 325 327 327 328 328 329 330 332
311 307 312 314 314 314 313 314 314 315 315 315 315 322 340 336 335 336 334 332 338 337 333 331 330 328 326 326 324 324 326 328 329 330 330 331 331 332 331 326 321 325 329 329 327 329 331 334 335
310 307 311 311 311 313 314 314 315 315 315 314 315 319 342 335 337 337 335 335 337 336 335 331 330 329 327 327 326 324 326 327 329 330 332 332 330 329 329 324 321 324 327 328 328 332 332 334 335
310 309 310 312 312 313 313 313 314 314 313 315 316 323 340 334 338 337 337 336 339 338 336 333 331 331 329 327 328 325 325 326 328 331 332 331 329 326 323 320 321 324 326 327 327 330 334 335 335
307 309 311 310 311 312 315 316 315 314 314 315 318 329 339 333 337 337 337 338 339 339 338 334 333 331 330 328 328 328 325 325 327 330 332 331 327 324 322 320 320 323 325 326 326 327 331 331 331
307 311 309 310 311 312 315 315 315 313 313 314 331 339 335 334 336 338 338 339 339 340 339 337 335 332 332 331 329 329 328 325 327 329 330 330 328 325 324 321 321 322 324 325 325 325 326 327 328
310 308 309 308 310 313 314 313 314 315 313 315 317 333 333 336 336 337 337 338 339 339 340 338 336 334 332 332 330 330 330 328 328 329 330 329 328 326 324 322 322 322 323 323 325 325 325 325 326
309 310 309 310 311 312 312 313 313 313 312 313 316 323 333 334 335 335 335 336 337 339 339 340 339 336 334 334 333 331 331 331 329 329 330 330 329 327 325 324 324 323 323 322 323 326 327 326 327
314 314 313 311 312 313 311 311 311 311 313 312 312 317 331 333 332 333 333 334 336 337 338 339 339 338 336 335 335 334 332 333 332 330 330 330 330 328 326 325 323 323 322 322 321 323 325 327 328
311 312 311 311 313 313 314 313 312 312 311 310 310 311 329 332 332 332 331 332 335 337 337 337 339 339 338 337 336 336 334 333 332 330 328 328 328 327 326 325 323 321 321 321 321 321 321 322 322
306 305 305 308 312 314 315 316 312 313 311 309 309 309 311 331 332 333 331 332 334 335 336 337 338 338 339 338 337 336 336 334 332 332 326 326 327 326 325 325 324 321 320 320 320 320 320 320 320
303 304 306 308 311 314 315 316 316 314 313 309 308 309 310 313 333 333 333 331 331 334 335 337 337 337 337 337 337 337 336 336 333 331 329 325 326 326 325 324 324 322 320 320 321 321 320 320 320
302 303 308 309 311 314 313 316 315 314 312 311 308 308 309 310 327 334 335 333 331 331 334 335 336 336 336 337 337 336 336 336 334 332 331 328 325 325 326 325 324 322 321 321 322 321 321 320 319
302 302 303 305 312 313 316 315 313 315 312 312 310 306 307 308 309 326 335 335 334 331 331 333 334 335 335 337 336 335 334 333 334 333 331 330 326 325 325 324 324 324 323 322 322 324 323 322 320
300 302 302 306 311 311 316 317 316 315 314 312 312 307 306 307 308 313 330 337 336 335 331 330 333 334 333 335 335 334 334 332 332 333 332 330 329 326 326 325 324 324 325 325 326 326 328 328 324
302 302 303 303 305 311 314 318 318 318 314 315 315 309 307 307 309 311 314 334 339 336 334 332 331 332 333 333 333 333 333 333 333 333 332 330 330 327 325 326 325 325 326 326 327 328 329 331 329
303 303 303 303 306 308 316 316 315 316 315 316 317 315 310 307 308 309 311 313 336 338 336 334 332 331 331 331 331 330 330 330 331 332 331 330 330 328 324 325 325 325 326 328 329 330 330 331 331
305 304 304 307 309 311 315 317 317 316 314 314 310 311 312 308 308 308 308 311 312 337 338 337 335 333 331 330 330 329 328 329 330 330 331 330 329 329 326 324 324 324 324 326 328 330 331 330 331
311 306 304 307 311 313 316 318 318 317 317 316 314 310 307 308 308 307 308 308 310 317 338 339 337 336 334 331 330 330 328 329 329 328 328 329 329 328 327 325 324 323 324 325 327 329 332 331 331
310 307 304 306 311 314 314 320 317 314 315 314 314 314 314 314 313 307 306 308 311 313 318 338 339 338 336 333 331 331 331 330 330 330 330 329 329 328 327 326 325 325 326 327 328 330 331 333 332
308 309 304 306 310 315 312 316 320 317 314 311 309 308 310 313 315 315 315 317 313 310 311 317 337 339 338 336 333 333 333 333 333 333 333 333 332 332 331 330 329 329 330 331 332 332 332 333 333
309 310 307 310 304 312 312 318 317 315 310 310 310 308 306 308 309 312 314 315 319 321 323 320 317 338 339 338 335 334 334 335 335 335 336 336 335 336 335 335 334 334 334 335 335 335 335 335 335
310 309 307 309 312 311 315 320 317 311 310 308 309 307 306 305 305 306 308 313 315 316 321 329 332 334 339 339 338 335 335 335 336 338 338 338 337 337 338 339 338 338 338 338 337 338 338 337 337
312 312 309 312 311 313 314 316 314 309 309 309 309 307 306 304 303 304 304 307 310 312 315 319 324 329 337 340 340 339 337 337 336 338 341 340 339 339 339 339 340 341 341 341 340 339 339 339 339
305 307 314 309 301 312 317 310 310 308 310 309 309 307 306 304 302 302 302 303 304 307 310 312 315 318 325 331 331 331 334 338 338 337 339 341 341 341 340 339 337 329 327 333 331 340 340 339 339
302 302 307 310 308 312 315 308 307 308 310 309 309 308 305 305 304 302 302 303 303 305 306 307 308 310 312 316 318 318 319 322 328 331 335 338 337 331 328 325 330 331 326 328 327 325 336 339 339
302 301 302 302 308 298 307 306 307 306 307 306 307 308 307 305 305 304 303 303 302 303 303 304 304 306 307 307 308 311 312 313 315 314 316 321 328 333 334 333 338 338 338 339 340 337 334 336 336
Wind_Speed
12 12 5 4 3 4 3 5 2 2 1 2 6 5 8 2 4 4 8 37 41 49 42 39 35 32 31 31 32 34 37 36 34 33 33 31 28 27 26 24 21 19 19 19 19 19 21 22 23
10 6 3 2 4 2 4 4 6 3 2 10 7 2 6 5 4 2 8 22 47 50 44 40 37 33 32 30 31 33 35 34 33 33 32 30 28 26 25 23 21 20 21 21 20 21 23 23 23
4 3 3 4 4 5 5 5 4 1 9 3 5 2 4 4 3 10 7 31 42 48 45 41 38 35 33 32 31 32 33 33 32 32 31 29 27 26 24 22 21 21 22 22 22 23 24 24 23
2 5 4 4 7 6 5 5 3 4 6 2 3 8 4 4 1 7 23 38 42 47 45 41 38 36 34 32 32 32 32 32 31 30 29 28 26 25 23 21 20 22 22 22 23 24 24 24 22
4 3 1 1 5 5 5 4 3 5 1 8 4 5 5 4 3 16 36 44 45 45 44 42 39 37 35 33 32 32 33 32 31 30 29 27 25 23 22 20 20 22 22 22 23 24 24 23 21
3 3 1 4 6 4 3 5 2 4 3 7 5 8 4 1 7 21 35 43 45 47 42 41 38 37 35 34 33 33 32 32 31 30 28 26 24 23 21 20 21 22 22 22 23 23 22 21 18
5 4 5 4 4 5 5 7 5 6 1 4 3 4 2 1 11 23 33 39 42 43 43 41 38 36 34 34 33 32 32 32 31 30 28 26 24 22 22 21 21 21 22 22 22 22 22 19 16
4 3 4 5 5 8 4 4 4 4 4 3 2 4 6 2 18 24 32 34 40 39 41 41 38 37 35 33 32 31 31 31 30 29 27 25 23 22 21 20 21 21 21 21 21 21 20 18 15
3 1 5 7 7 6 1 0 3 2 2 2 3 3 3 22 24 25 26 27 33 36 40 41 39 38 35 33 31 30 29 29 29 27 26 24 23 22 21 20 20 20 20 20 20 19 18 17 15
3 3 6 7 6 4 2 2 3 4 6 3 4 4 11 18 26 18 24 25 28 33 39 43 41 39 36 34 32 31 30 29 29 28 27 25 23 22 20 19 19 19 19 19 19 18 18 17 15
3 11 2 3 4 3 4 3 4 4 7 6 3 3 8 7 10 14 18 25 28 27 35 40 40 39 38 36 34 32 31 30 29 28 27 26 24 23 21 20 19 19 19 19 19 19 18 17 15
6 2 3 4 8 6 3 6 6 7 6 7 6 4 7 11 10 13 14 19 32 35 33 38 39 38 38 37 36 34 33 32 31 30 29 28 27 26 24 23 22 21 20 20 20 19 18 17 16
6 7 6 9 13 12 13 6 10 20 13 9 8 8 7 10 10 12 13 16 22 29 33 36 38 38 38 37 36 35 35 35 33 32 32 31 30 28 26 24 23 22 21 20 20 19 19 18 17
8 13 14 9 9 9 13 11 8 27 7 11 9 12 10 11 13 17 17 23 27 28 36 35 34 36 37 36 35 32 35 36 35 34 34 32 31 30 28 26 25 23 23 21 20 19 18 18 17
9 18 18 13 6 7 6 14 20 39 4 8 9 9 10 9 14 19 25 26 32 33 34 39 35 34 36 33 30 31 31 39 39 37 35 33 33 31 30 29 28 26 24 22 21 20 20 20 19
7 8 5 6 3 6 12 26 21 19 7 10 8 9 9 11 9 24 27 31 33 29 33 37 34 33 36 35 35 34 33 39 41 39 37 35 34 32 31 30 30 28 26 24 23 23 23 22 22
2 10 15 16 10 6 12 21 12 11 8 9 6 9 10 11 8 18 24 30 34 37 38 40 41 40 39 34 38 40 40 39 41 40 39 38 36 35 34 33 32 29 28 28 27 26 26 25 24
6 9 9 12 5 16 15 21 15 13 10 11 11 8 9 10 14 21 25 29 33 36 39 41 41 41 43 39 38 38 39 39 41 43 42 40 39 38 36 35 33 31 30 30 29 29 27 27 25
14 17 19 15 13 16 19 20 14 11 10 14 12 8 10 11 15 22 25 29 31 34 37 40 41 41 40 36 34 33 40 42 42 44 44 42 41 40 39 38 36 34 33 34 32 31 29 27 24
14 17 20 16 11 16 10 18 15 13 9 10 15 17 12 8 10 12 20 25 29 31 36 37 40 42 44 39 44 33 34 37 43 44 45 45 44 43 43 42 41 39 36 35 34 33 30 28 24
14 16 13 14 8 15 9 14 10 7 7 9 9 13 14 11 12 10 9 21 28 30 33 38 39 42 45 41 30 26 20 21 30 36 43 48 47 47 46 45 44 42 41 41 39 37 34 23 25
16 14 15 13 5 4 4 5 4 2 6 6 15 8 8 8 6 9 7 10 25 33 28 35 38 43 45 42 33 36 35 29 37 44 48 44 49 49 48 47 45 45 44 42 41 40 38 33 23
9 9 13 13 6 5 7 1 5 9 13 19 11 13 11 9 6 9 10 15 25 29 36 37 38 40 39 43 42 39 36 35 27 29 32 39 43 49 48 48 46 47 45 43 41 37 37 36 29
14 7 6 9 3 4 5 4 3 7 11 18 16 16 14 13 11 10 13 12 6 15 25 29 30 36 37 41 43 42 41 37 29 29 32 34 35 38 42 45 46 45 40 40 40 41 41 40 40
1 1 1 3 1 3 5 7 4 9 14 13 15 16 15 14 14 14 13 10 15 11 8 22 29 31 35 40 41 42 39 35 32 29 28 26 27 33 43 42 38 36 38 36 34 36 39 40 38
6 3 2 3 4 4 3 7 4 13 12 14 15 15 17 19 16 16 15 15 18 19 19 13 6 14 21 27 30 31 30 30 32 27 27 29 30 29 23 24 28 32 36 38 37 36 39 37 40
4 3 1 4 2 3 4 3 4 16 19 20 19 20 21 19 18 18 16 22 22 25 27 26 27 22 13 6 17 21 28 28 26 23 22 24 26 25 24 28 26 27 29 30 33 36 37 38 40
6 6 1 2 3 3 6 6 9 16 14 18 19 18 18 19 21 20 18 24 26 26 26 34 36 33 30 21 18 15 7 10 19 23 20 18 22 20 16 13 20 25 27 33 27 29 36 33 36
5 8 5 2 3 3 4 2 5 9 9 13 16 16 15 17 18 18 18 29 28 30 32 31 31 32 34 32 30 29 28 25 18 14 6 13 17 18 22 15 34 40 28 33 27 38 41 26 27
3 3 5 3 4 1 2 2 7 4 4 7 13 15 16 16 15 15 18 25 28 29 31 32 33 34 32 30 30 28 26 26 26 23 18 13 10 7 4 16 34 25 23 23 27 32 29 40 37
Wind_Direction
339 338 335 41 53 64 271 249 259 236 316 234 251 192 234 17 170 205 338 174 165 160 165 162 160 156 151 148 146 144 148 148 148 147 146 145 145 145 144 144 141 137 133 132 131 131 130 127 127
336 336 30 82 104 141 259 252 215 204 277 289 296 254 301 280 111 81 97 168 168 161 167 165 162 159 153 150 149 148 149 151 151 149 148 148 146 145 144 143 142 139 136 133 133 133 132 132 130
344 19 89 126 148 184 205 219 227 220 283 315 341 275 223 269 67 158 150 165 166 163 168 167 164 163 157 153 152 150 151 152 152 152 151 150 148 148 147 144 141 140 139 138 137 136 136 135 131
122 22 34 118 207 243 209 198 239 342 332 307 312 301 309 358 4 192 159 165 167 166 170 169 166 165 160 157 155 154 153 153 154 154 153 153 152 151 149 146 144 144 144 143 142 141 141 138 134
54 67 85 223 243 259 236 269 293 290 227 280 317 280 264 45 109 158 163 163 168 168 173 172 170 168 164 161 159 158 157 156 157 157 156 156 156 154 152 150 150 150 151 149 147 146 146 144 144
56 99 87 232 239 238 270 235 229 258 194 291 312 300 240 87 122 154 161 162 171 171 174 175 175 172 168 166 164 163 163 161 161 161 161 160 159 158 158 156 156 157 158 155 154 153 153 153 153
124 103 220 229 247 280 213 212 200 231 162 281 273 286 284 213 139 153 160 164 171 173 175 178 178 176 173 170 168 167 167 166 165 165 165 164 163 163 162 161 160 160 161 162 161 161 162 162 161
113 119 184 231 215 270 225 200 202 221 258 287 266 278 290 180 149 156 159 164 171 174 178 180 181 180 177 175 174 172 171 170 169 169 169 168 167 167 166 165 163 164 166 167 168 169 171 172 171
139 226 222 212 162 244 304 171 285 262 222 302 286 299 325 142 154 148 145 155 168 177 181 183 184 183 181 179 178 177 176 175 174 173 173 172 172 172 171 170 169 169 170 172 174 177 180 182 184
150 200 228 192 193 235 291 321 276 325 322 233 262 78 114 145 152 162 163 164 169 174 183 186 186 185 183 183 182 182 181 180 180 180 179 180 179 178 177 176 176 175 175 178 180 184 188 192 197
251 237 168 326 357 347 279 273 247 208 272 210 236 311 148 160 186 182 183 178 173 173 178 188 188 186 185 187 186 186 186 186 187 187 187 186 184 183 183 183 183 183 184 185 188 191 196 202 207
306 341 100 342 341 332 280 323 302 258 238 270 286 315 162 178 195 197 198 190 174 176 179 185 191 190 188 190 190 189 191 191 191 192 193 191 190 190 189 190 190 192 193 195 196 199 203 210 216
256 332 318 329 322 305 301 260 270 268 248 267 276 290 215 195 185 201 201 196 182 176 180 186 190 194 192 192 193 195 197 198 198 197 199 198 198 195 195 197 198 197 200 202 205 208 210 215 222
309 315 308 300 295 285 288 289 325 267 260 237 242 253 258 211 197 179 188 187 192 187 186 185 188 191 193 192 194 196 201 203 204 205 205 203 205 203 201 201 204 205 207 209 212 216 220 223 227
298 307 307 281 218 241 276 265 232 253 346 287 253 252 248 237 198 205 190 192 197 199 192 188 186 188 191 189 191 196 201 206 209 211 210 208 209 211 209 208 209 210 212 214 217 220 224 229 232
316 289 324 349 254 252 167 257 239 262 257 257 246 253 259 262 211 212 202 199 202 195 203 197 193 193 194 192 195 198 204 210 212 214 214 213 214 214 216 216 218 216 215 217 221 223 227 232 234
228 276 280 298 325 262 194 263 266 255 257 260 228 246 254 262 254 231 212 201 201 206 206 207 205 204 203 198 203 208 213 215 215 217 218 217 218 218 219 222 224 223 222 221 223 226 230 235 237
268 273 282 273 356 309 300 277 282 284 281 257 263 233 244 247 254 233 217 208 209 210 210 210 208 209 210 206 210 213 216 218 218 219 220 221 221 222 221 224 227 227 227 227 226 229 232 237 242
265 270 273 274 286 289 284 286 299 275 258 266 257 229 240 246 256 251 228 213 208 206 204 208 207 209 205 200 198 204 211 214 218 221 223 223 224 223 224 227 228 228 230 231 231 231 233 235 239
255 258 265 279 263 272 283 292 289 281 255 242 245 250 236 236 251 245 240 224 205 202 206 208 209 207 208 204 207 208 210 215 220 220 225 225 226 226 225 227 230 229 231 234 235 234 232 237 233
257 246 255 261 280 266 293 286 257 258 234 252 242 241 243 215 239 248 228 223 215 206 203 206 207 209 210 207 204 207 211 218 218 222 225 227 227 228 228 227 229 233 232 234 236 237 236 230 232
265 237 246 241 238 232 130 299 309 322 311 21 339 295 280 275 268 259 237 219 221 220 212 211 208 209 213 207 199 199 205 205 215 216 222 222 228 229 230 231 230 232 236 236 238 240 240 234 228
271 270 229 223 209 260 161 211 340 351 353 339 343 3 358 333 315 272 263 232 232 228 218 216 212 212 209 205 205 202 207 218 223 218 217 218 223 229 230 231 232 234 233 236 236 236 236 238 229
263 332 231 227 160 251 205 130 42 15 352 0 0 2 360 12 21 20 19 15 316 250 243 231 218 215 207 206 205 206 209 215 217 211 209 212 213 221 227 232 233 234 231 231 234 239 241 238 238
58 108 194 221 16 240 196 155 57 7 4 5 355 359 7 18 27 28 27 17 13 357 275 244 228 216 208 209 207 211 216 217 216 214 209 205 207 214 223 226 227 227 234 236 235 234 236 236 231
314 303 187 235 176 216 118 169 74 12 358 2 14 10 13 19 15 21 21 28 31 27 39 66 194 237 217 210 211 213 218 221 224 221 211 209 208 216 215 223 230 238 241 244 241 239 241 238 240
6 19 138 280 264 116 146 82 62 8 359 4 12 13 17 16 15 16 11 18 26 34 38 47 59 64 76 167 209 215 221 227 229 226 217 217 220 223 229 230 232 237 248 252 248 240 238 241 242
39 321 23 3 14 318 92 50 352 0 358 352 359 16 18 20 25 21 19 17 16 24 39 52 57 55 59 67 73 70 87 210 221 218 214 206 198 190 193 223 246 239 240 237 244 253 248 235 243
335 21 7 308 14 344 14 46 292 329 2 356 350 356 20 30 24 22 25 29 28 31 36 36 43 52 60 62 62 59 57 62 76 84 128 215 228 252 252 261 279 261 245 258 269 278 276 225 247
33 23 358 51 344 7 154 204 281 288 4 21 354 359 12 23 22 23 16 24 22 23 30 35 38 46 50 55 58 59 61 59 60 60 60 57 63 96 142 237 240 255 256 253 238 240 229 252 253